Index of /20260411/WXO-DD/model_gdps/15km/12/078
Name Last modified Size Description
Parent Directory -
20260411T12Z_MSC_GDPS_AbsoluteVorticity_IsbL-0200_LatLon0.15_PT078H.grib2 2026-04-11 16:35 1.2M
20260411T12Z_MSC_GDPS_AbsoluteVorticity_IsbL-0250_LatLon0.15_PT078H.grib2 2026-04-11 16:35 1.3M
20260411T12Z_MSC_GDPS_AbsoluteVorticity_IsbL-0500_LatLon0.15_PT078H.grib2 2026-04-11 16:35 1.2M
20260411T12Z_MSC_GDPS_AbsoluteVorticity_IsbL-0700_LatLon0.15_PT078H.grib2 2026-04-11 16:35 1.3M
20260411T12Z_MSC_GDPS_AbsoluteVorticity_IsbL-0850_LatLon0.15_PT078H.grib2 2026-04-11 16:35 1.6M
20260411T12Z_MSC_GDPS_AirTemp-Max_AGL-2m_LatLon0.15_PT078H.grib2 2026-04-11 16:35 751K
20260411T12Z_MSC_GDPS_AirTemp-Min_AGL-2m_LatLon0.15_PT078H.grib2 2026-04-11 16:35 796K
20260411T12Z_MSC_GDPS_AirTemp_AGL-120m_LatLon0.15_PT078H.grib2 2026-04-11 16:35 913K
20260411T12Z_MSC_GDPS_AirTemp_AGL-2m_LatLon0.15_PT078H.grib2 2026-04-11 16:35 1.0M
20260411T12Z_MSC_GDPS_AirTemp_AGL-40m_LatLon0.15_PT078H.grib2 2026-04-11 16:35 936K
20260411T12Z_MSC_GDPS_AirTemp_AGL-80m_LatLon0.15_PT078H.grib2 2026-04-11 16:35 924K
20260411T12Z_MSC_GDPS_AirTemp_IsbL-0001_LatLon0.15_PT078H.grib2 2026-04-11 16:35 693K
20260411T12Z_MSC_GDPS_AirTemp_IsbL-0005_LatLon0.15_PT078H.grib2 2026-04-11 16:35 740K
20260411T12Z_MSC_GDPS_AirTemp_IsbL-0010_LatLon0.15_PT078H.grib2 2026-04-11 16:35 754K
20260411T12Z_MSC_GDPS_AirTemp_IsbL-0020_LatLon0.15_PT078H.grib2 2026-04-11 16:35 699K
20260411T12Z_MSC_GDPS_AirTemp_IsbL-0030_LatLon0.15_PT078H.grib2 2026-04-11 16:35 749K
20260411T12Z_MSC_GDPS_AirTemp_IsbL-0050_LatLon0.15_PT078H.grib2 2026-04-11 16:35 820K
20260411T12Z_MSC_GDPS_AirTemp_IsbL-0100_LatLon0.15_PT078H.grib2 2026-04-11 16:35 956K
20260411T12Z_MSC_GDPS_AirTemp_IsbL-0150_LatLon0.15_PT078H.grib2 2026-04-11 16:35 964K
20260411T12Z_MSC_GDPS_AirTemp_IsbL-0175_LatLon0.15_PT078H.grib2 2026-04-11 16:35 954K
20260411T12Z_MSC_GDPS_AirTemp_IsbL-0200_LatLon0.15_PT078H.grib2 2026-04-11 16:35 966K
20260411T12Z_MSC_GDPS_AirTemp_IsbL-0225_LatLon0.15_PT078H.grib2 2026-04-11 16:35 1.0M
20260411T12Z_MSC_GDPS_AirTemp_IsbL-0250_LatLon0.15_PT078H.grib2 2026-04-11 16:35 1.0M
20260411T12Z_MSC_GDPS_AirTemp_IsbL-0275_LatLon0.15_PT078H.grib2 2026-04-11 16:35 1.0M
20260411T12Z_MSC_GDPS_AirTemp_IsbL-0300_LatLon0.15_PT078H.grib2 2026-04-11 16:35 953K
20260411T12Z_MSC_GDPS_AirTemp_IsbL-0350_LatLon0.15_PT078H.grib2 2026-04-11 16:35 929K
20260411T12Z_MSC_GDPS_AirTemp_IsbL-0400_LatLon0.15_PT078H.grib2 2026-04-11 16:35 946K
20260411T12Z_MSC_GDPS_AirTemp_IsbL-0450_LatLon0.15_PT078H.grib2 2026-04-11 16:35 967K
20260411T12Z_MSC_GDPS_AirTemp_IsbL-0500_LatLon0.15_PT078H.grib2 2026-04-11 16:35 1.0M
20260411T12Z_MSC_GDPS_AirTemp_IsbL-0550_LatLon0.15_PT078H.grib2 2026-04-11 16:35 1.0M
20260411T12Z_MSC_GDPS_AirTemp_IsbL-0600_LatLon0.15_PT078H.grib2 2026-04-11 16:35 895K
20260411T12Z_MSC_GDPS_AirTemp_IsbL-0650_LatLon0.15_PT078H.grib2 2026-04-11 16:35 924K
20260411T12Z_MSC_GDPS_AirTemp_IsbL-0700_LatLon0.15_PT078H.grib2 2026-04-11 16:35 960K
20260411T12Z_MSC_GDPS_AirTemp_IsbL-0750_LatLon0.15_PT078H.grib2 2026-04-11 16:35 1.0M
20260411T12Z_MSC_GDPS_AirTemp_IsbL-0800_LatLon0.15_PT078H.grib2 2026-04-11 16:35 1.1M
20260411T12Z_MSC_GDPS_AirTemp_IsbL-0850_LatLon0.15_PT078H.grib2 2026-04-11 16:35 1.1M
20260411T12Z_MSC_GDPS_AirTemp_IsbL-0875_LatLon0.15_PT078H.grib2 2026-04-11 16:35 1.2M
20260411T12Z_MSC_GDPS_AirTemp_IsbL-0900_LatLon0.15_PT078H.grib2 2026-04-11 16:35 1.1M
20260411T12Z_MSC_GDPS_AirTemp_IsbL-0925_LatLon0.15_PT078H.grib2 2026-04-11 16:35 1.1M
20260411T12Z_MSC_GDPS_AirTemp_IsbL-0950_LatLon0.15_PT078H.grib2 2026-04-11 16:35 1.1M
20260411T12Z_MSC_GDPS_AirTemp_IsbL-0970_LatLon0.15_PT078H.grib2 2026-04-11 16:35 1.2M
20260411T12Z_MSC_GDPS_AirTemp_IsbL-0985_LatLon0.15_PT078H.grib2 2026-04-11 16:35 1.1M
20260411T12Z_MSC_GDPS_AirTemp_IsbL-1000_LatLon0.15_PT078H.grib2 2026-04-11 16:35 1.1M
20260411T12Z_MSC_GDPS_AirTemp_IsbL-1015_LatLon0.15_PT078H.grib2 2026-04-11 16:35 1.1M
20260411T12Z_MSC_GDPS_Albedo_Sfc_LatLon0.15_PT078H.grib2 2026-04-11 16:35 249K
20260411T12Z_MSC_GDPS_CAPE_Sfc_LatLon0.15_PT078H.grib2 2026-04-11 16:35 3.9M
20260411T12Z_MSC_GDPS_CIN_Sfc_LatLon0.15_PT078H.grib2 2026-04-11 16:35 2.8M
20260411T12Z_MSC_GDPS_CloudWater_EAtm_LatLon0.15_PT078H.grib2 2026-04-11 16:35 527K
20260411T12Z_MSC_GDPS_ConvectivePrecip-Accum_Sfc_LatLon0.15_PT078H.grib2 2026-04-11 16:35 3.0M
20260411T12Z_MSC_GDPS_DewPointDepression_AGL-2m_LatLon0.15_PT078H.grib2 2026-04-11 16:35 755K
20260411T12Z_MSC_GDPS_DewPointDepression_IsbL-0010_LatLon0.15_PT078H.grib2 2026-04-11 16:35 20K
20260411T12Z_MSC_GDPS_DewPointDepression_IsbL-0020_LatLon0.15_PT078H.grib2 2026-04-11 16:35 65K
20260411T12Z_MSC_GDPS_DewPointDepression_IsbL-0030_LatLon0.15_PT078H.grib2 2026-04-11 16:35 69K
20260411T12Z_MSC_GDPS_DewPointDepression_IsbL-0050_LatLon0.15_PT078H.grib2 2026-04-11 16:35 352K
20260411T12Z_MSC_GDPS_DewPointDepression_IsbL-0100_LatLon0.15_PT078H.grib2 2026-04-11 16:35 371K
20260411T12Z_MSC_GDPS_DewPointDepression_IsbL-0150_LatLon0.15_PT078H.grib2 2026-04-11 16:35 448K
20260411T12Z_MSC_GDPS_DewPointDepression_IsbL-0175_LatLon0.15_PT078H.grib2 2026-04-11 16:35 529K
20260411T12Z_MSC_GDPS_DewPointDepression_IsbL-0200_LatLon0.15_PT078H.grib2 2026-04-11 16:35 626K
20260411T12Z_MSC_GDPS_DewPointDepression_IsbL-0225_LatLon0.15_PT078H.grib2 2026-04-11 16:35 764K
20260411T12Z_MSC_GDPS_DewPointDepression_IsbL-0250_LatLon0.15_PT078H.grib2 2026-04-11 16:35 865K
20260411T12Z_MSC_GDPS_DewPointDepression_IsbL-0275_LatLon0.15_PT078H.grib2 2026-04-11 16:35 882K
20260411T12Z_MSC_GDPS_DewPointDepression_IsbL-0300_LatLon0.15_PT078H.grib2 2026-04-11 16:35 920K
20260411T12Z_MSC_GDPS_DewPointDepression_IsbL-0350_LatLon0.15_PT078H.grib2 2026-04-11 16:35 958K
20260411T12Z_MSC_GDPS_DewPointDepression_IsbL-0400_LatLon0.15_PT078H.grib2 2026-04-11 16:35 1.0M
20260411T12Z_MSC_GDPS_DewPointDepression_IsbL-0450_LatLon0.15_PT078H.grib2 2026-04-11 16:35 1.0M
20260411T12Z_MSC_GDPS_DewPointDepression_IsbL-0500_LatLon0.15_PT078H.grib2 2026-04-11 16:35 1.0M
20260411T12Z_MSC_GDPS_DewPointDepression_IsbL-0550_LatLon0.15_PT078H.grib2 2026-04-11 16:35 1.0M
20260411T12Z_MSC_GDPS_DewPointDepression_IsbL-0600_LatLon0.15_PT078H.grib2 2026-04-11 16:35 1.1M
20260411T12Z_MSC_GDPS_DewPointDepression_IsbL-0650_LatLon0.15_PT078H.grib2 2026-04-11 16:35 1.1M
20260411T12Z_MSC_GDPS_DewPointDepression_IsbL-0700_LatLon0.15_PT078H.grib2 2026-04-11 16:35 1.1M
20260411T12Z_MSC_GDPS_DewPointDepression_IsbL-0750_LatLon0.15_PT078H.grib2 2026-04-11 16:35 1.1M
20260411T12Z_MSC_GDPS_DewPointDepression_IsbL-0800_LatLon0.15_PT078H.grib2 2026-04-11 16:35 1.2M
20260411T12Z_MSC_GDPS_DewPointDepression_IsbL-0850_LatLon0.15_PT078H.grib2 2026-04-11 16:35 1.2M
20260411T12Z_MSC_GDPS_DewPointDepression_IsbL-0875_LatLon0.15_PT078H.grib2 2026-04-11 16:35 1.1M
20260411T12Z_MSC_GDPS_DewPointDepression_IsbL-0900_LatLon0.15_PT078H.grib2 2026-04-11 16:35 1.1M
20260411T12Z_MSC_GDPS_DewPointDepression_IsbL-0925_LatLon0.15_PT078H.grib2 2026-04-11 16:35 1.0M
20260411T12Z_MSC_GDPS_DewPointDepression_IsbL-0950_LatLon0.15_PT078H.grib2 2026-04-11 16:35 1.0M
20260411T12Z_MSC_GDPS_DewPointDepression_IsbL-0970_LatLon0.15_PT078H.grib2 2026-04-11 16:35 1.0M
20260411T12Z_MSC_GDPS_DewPointDepression_IsbL-0985_LatLon0.15_PT078H.grib2 2026-04-11 16:35 1.0M
20260411T12Z_MSC_GDPS_DewPointDepression_IsbL-1000_LatLon0.15_PT078H.grib2 2026-04-11 16:35 1.0M
20260411T12Z_MSC_GDPS_DewPointDepression_IsbL-1015_LatLon0.15_PT078H.grib2 2026-04-11 16:35 917K
20260411T12Z_MSC_GDPS_DewPoint_AGL-2m_LatLon0.15_PT078H.grib2 2026-04-11 16:35 616K
20260411T12Z_MSC_GDPS_DownwardLongwaveRadiationFlux-Accum_Sfc_LatLon0.15_PT078H.grib2 2026-04-11 16:35 675K
20260411T12Z_MSC_GDPS_DownwardShortwaveRadiationFlux-Accum_NTAtm_LatLon0.15_PT078H.grib2 2026-04-11 16:35 267K
20260411T12Z_MSC_GDPS_DownwardShortwaveRadiationFlux-Accum_Sfc_LatLon0.15_PT078H.grib2 2026-04-11 16:35 900K
20260411T12Z_MSC_GDPS_FreezingRain-Accum12h_Sfc_LatLon0.15_PT078H.grib2 2026-04-11 16:35 89K
20260411T12Z_MSC_GDPS_FreezingRain-Accum1h_Sfc_LatLon0.15_PT078H.grib2 2026-04-11 16:35 28K
20260411T12Z_MSC_GDPS_FreezingRain-Accum24h_Sfc_LatLon0.15_PT078H.grib2 2026-04-11 16:35 72K
20260411T12Z_MSC_GDPS_FreezingRain-Accum3h_Sfc_LatLon0.15_PT078H.grib2 2026-04-11 16:35 38K
20260411T12Z_MSC_GDPS_FreezingRain-Accum6h_Sfc_LatLon0.15_PT078H.grib2 2026-04-11 16:35 61K
20260411T12Z_MSC_GDPS_FreezingRain-Accum_Sfc_LatLon0.15_PT078H.grib2 2026-04-11 16:35 201K
20260411T12Z_MSC_GDPS_GeopotentialHeight_IsbL-0001_LatLon0.15_PT078H.grib2 2026-04-11 16:35 551K
20260411T12Z_MSC_GDPS_GeopotentialHeight_IsbL-0005_LatLon0.15_PT078H.grib2 2026-04-11 16:35 505K
20260411T12Z_MSC_GDPS_GeopotentialHeight_IsbL-0010_LatLon0.15_PT078H.grib2 2026-04-11 16:35 437K
20260411T12Z_MSC_GDPS_GeopotentialHeight_IsbL-0020_LatLon0.15_PT078H.grib2 2026-04-11 16:35 583K
20260411T12Z_MSC_GDPS_GeopotentialHeight_IsbL-0030_LatLon0.15_PT078H.grib2 2026-04-11 16:35 586K
20260411T12Z_MSC_GDPS_GeopotentialHeight_IsbL-0050_LatLon0.15_PT078H.grib2 2026-04-11 16:35 580K
20260411T12Z_MSC_GDPS_GeopotentialHeight_IsbL-0100_LatLon0.15_PT078H.grib2 2026-04-11 16:35 618K
20260411T12Z_MSC_GDPS_GeopotentialHeight_IsbL-0150_LatLon0.15_PT078H.grib2 2026-04-11 16:35 637K
20260411T12Z_MSC_GDPS_GeopotentialHeight_IsbL-0175_LatLon0.15_PT078H.grib2 2026-04-11 16:35 639K
20260411T12Z_MSC_GDPS_GeopotentialHeight_IsbL-0200_LatLon0.15_PT078H.grib2 2026-04-11 16:35 642K
20260411T12Z_MSC_GDPS_GeopotentialHeight_IsbL-0225_LatLon0.15_PT078H.grib2 2026-04-11 16:35 643K
20260411T12Z_MSC_GDPS_GeopotentialHeight_IsbL-0250_LatLon0.15_PT078H.grib2 2026-04-11 16:35 644K
20260411T12Z_MSC_GDPS_GeopotentialHeight_IsbL-0275_LatLon0.15_PT078H.grib2 2026-04-11 16:35 642K
20260411T12Z_MSC_GDPS_GeopotentialHeight_IsbL-0300_LatLon0.15_PT078H.grib2 2026-04-11 16:35 633K
20260411T12Z_MSC_GDPS_GeopotentialHeight_IsbL-0350_LatLon0.15_PT078H.grib2 2026-04-11 16:35 630K
20260411T12Z_MSC_GDPS_GeopotentialHeight_IsbL-0400_LatLon0.15_PT078H.grib2 2026-04-11 16:35 617K
20260411T12Z_MSC_GDPS_GeopotentialHeight_IsbL-0450_LatLon0.15_PT078H.grib2 2026-04-11 16:35 537K
20260411T12Z_MSC_GDPS_GeopotentialHeight_IsbL-0500_LatLon0.15_PT078H.grib2 2026-04-11 16:35 528K
20260411T12Z_MSC_GDPS_GeopotentialHeight_IsbL-0550_LatLon0.15_PT078H.grib2 2026-04-11 16:35 522K
20260411T12Z_MSC_GDPS_GeopotentialHeight_IsbL-0600_LatLon0.15_PT078H.grib2 2026-04-11 16:35 683K
20260411T12Z_MSC_GDPS_GeopotentialHeight_IsbL-0650_LatLon0.15_PT078H.grib2 2026-04-11 16:35 683K
20260411T12Z_MSC_GDPS_GeopotentialHeight_IsbL-0700_LatLon0.15_PT078H.grib2 2026-04-11 16:35 686K
20260411T12Z_MSC_GDPS_GeopotentialHeight_IsbL-0750_LatLon0.15_PT078H.grib2 2026-04-11 16:35 692K
20260411T12Z_MSC_GDPS_GeopotentialHeight_IsbL-0800_LatLon0.15_PT078H.grib2 2026-04-11 16:35 703K
20260411T12Z_MSC_GDPS_GeopotentialHeight_IsbL-0850_LatLon0.15_PT078H.grib2 2026-04-11 16:35 715K
20260411T12Z_MSC_GDPS_GeopotentialHeight_IsbL-0875_LatLon0.15_PT078H.grib2 2026-04-11 16:35 720K
20260411T12Z_MSC_GDPS_GeopotentialHeight_IsbL-0900_LatLon0.15_PT078H.grib2 2026-04-11 16:35 726K
20260411T12Z_MSC_GDPS_GeopotentialHeight_IsbL-0925_LatLon0.15_PT078H.grib2 2026-04-11 16:35 732K
20260411T12Z_MSC_GDPS_GeopotentialHeight_IsbL-0950_LatLon0.15_PT078H.grib2 2026-04-11 16:35 740K
20260411T12Z_MSC_GDPS_GeopotentialHeight_IsbL-0970_LatLon0.15_PT078H.grib2 2026-04-11 16:35 574K
20260411T12Z_MSC_GDPS_GeopotentialHeight_IsbL-0985_LatLon0.15_PT078H.grib2 2026-04-11 16:35 585K
20260411T12Z_MSC_GDPS_GeopotentialHeight_IsbL-1000_LatLon0.15_PT078H.grib2 2026-04-11 16:35 600K
20260411T12Z_MSC_GDPS_GeopotentialHeight_IsbL-1015_LatLon0.15_PT078H.grib2 2026-04-11 16:35 617K
20260411T12Z_MSC_GDPS_Humidex_Sfc_LatLon0.15_PT078H.grib2 2026-04-11 16:35 5.3M
20260411T12Z_MSC_GDPS_IcePellets-Accum12h_Sfc_LatLon0.15_PT078H.grib2 2026-04-11 16:35 29K
20260411T12Z_MSC_GDPS_IcePellets-Accum1h_Sfc_LatLon0.15_PT078H.grib2 2026-04-11 16:35 8.8K
20260411T12Z_MSC_GDPS_IcePellets-Accum24h_Sfc_LatLon0.15_PT078H.grib2 2026-04-11 16:35 31K
20260411T12Z_MSC_GDPS_IcePellets-Accum3h_Sfc_LatLon0.15_PT078H.grib2 2026-04-11 16:35 13K
20260411T12Z_MSC_GDPS_IcePellets-Accum6h_Sfc_LatLon0.15_PT078H.grib2 2026-04-11 16:35 21K
20260411T12Z_MSC_GDPS_IcePellets-Accum_Sfc_LatLon0.15_PT078H.grib2 2026-04-11 16:35 95K
20260411T12Z_MSC_GDPS_KIndex_Sfc_LatLon0.15_PT078H.grib2 2026-04-11 16:35 6.5M
20260411T12Z_MSC_GDPS_LatentHeatNetFlux_Sfc_LatLon0.15_PT078H.grib2 2026-04-11 16:35 666K
20260411T12Z_MSC_GDPS_LiftedIndex-MU-VT_IsbL-0500_LatLon0.15_PT078H.grib2 2026-04-11 16:35 5.4M
20260411T12Z_MSC_GDPS_NetLongwaveRadiationFlux-Accum_Sfc_LatLon0.15_PT078H.grib2 2026-04-11 16:35 1.0M
20260411T12Z_MSC_GDPS_NetShortwaveRadiationFlux-Accum_Sfc_LatLon0.15_PT078H.grib2 2026-04-11 16:35 1.1M
20260411T12Z_MSC_GDPS_O3MixingRatio_LatLon0.15_PT078H.grib2 2026-04-11 17:06 1.9M
20260411T12Z_MSC_GDPS_O3_EAtm_LatLon0.15_PT078H.grib2 2026-04-11 17:06 2.1M
20260411T12Z_MSC_GDPS_PlanetaryBoundaryLayerHeight_Sfc_LatLon0.15_PT078H.grib2 2026-04-11 16:35 2.4M
20260411T12Z_MSC_GDPS_Precip-Accum12h_Sfc_LatLon0.15_PT078H.grib2 2026-04-11 16:35 4.0M
20260411T12Z_MSC_GDPS_Precip-Accum1h_Sfc_LatLon0.15_PT078H.grib2 2026-04-11 16:35 3.2M
20260411T12Z_MSC_GDPS_Precip-Accum24h_Sfc_LatLon0.15_PT078H.grib2 2026-04-11 16:35 4.5M
20260411T12Z_MSC_GDPS_Precip-Accum3h_Sfc_LatLon0.15_PT078H.grib2 2026-04-11 16:35 3.4M
20260411T12Z_MSC_GDPS_Precip-Accum6h_Sfc_LatLon0.15_PT078H.grib2 2026-04-11 16:35 3.5M
20260411T12Z_MSC_GDPS_Precip-Accum_Sfc_LatLon0.15_PT078H.grib2 2026-04-11 16:35 4.8M
20260411T12Z_MSC_GDPS_PrecipRate_Sfc_LatLon0.15_PT078H.grib2 2026-04-11 16:35 2.9M
20260411T12Z_MSC_GDPS_PrecipType-Instant_Sfc_LatLon0.15_PT078H.grib2 2026-04-11 16:35 1.5M
20260411T12Z_MSC_GDPS_Pressure_MSL_LatLon0.15_PT078H.grib2 2026-04-11 16:35 823K
20260411T12Z_MSC_GDPS_Pressure_PVU-1.5_LatLon0.15_PT078H.grib2 2026-04-11 16:35 5.7M
20260411T12Z_MSC_GDPS_Pressure_PVU-1_LatLon0.15_PT078H.grib2 2026-04-11 16:35 6.0M
20260411T12Z_MSC_GDPS_Pressure_PVU-2_LatLon0.15_PT078H.grib2 2026-04-11 16:35 6.0M
20260411T12Z_MSC_GDPS_Pressure_Sfc_LatLon0.15_PT078H.grib2 2026-04-11 16:35 1.1M
20260411T12Z_MSC_GDPS_RadiativeTemp_Sfc_LatLon0.15_PT078H.grib2 2026-04-11 16:35 674K
20260411T12Z_MSC_GDPS_Rain-Accum12h_Sfc_LatLon0.15_PT078H.grib2 2026-04-11 16:35 2.6M
20260411T12Z_MSC_GDPS_Rain-Accum1h_Sfc_LatLon0.15_PT078H.grib2 2026-04-11 16:35 1.6M
20260411T12Z_MSC_GDPS_Rain-Accum24h_Sfc_LatLon0.15_PT078H.grib2 2026-04-11 16:35 3.0M
20260411T12Z_MSC_GDPS_Rain-Accum3h_Sfc_LatLon0.15_PT078H.grib2 2026-04-11 16:35 1.7M
20260411T12Z_MSC_GDPS_Rain-Accum6h_Sfc_LatLon0.15_PT078H.grib2 2026-04-11 16:35 2.2M
20260411T12Z_MSC_GDPS_Rain-Accum_Sfc_LatLon0.15_PT078H.grib2 2026-04-11 16:35 3.6M
20260411T12Z_MSC_GDPS_RelativeHumidity_AGL-2m_LatLon0.15_PT078H.grib2 2026-04-11 16:35 1.0M
20260411T12Z_MSC_GDPS_RelativeHumidity_IsbL-0010_LatLon0.15_PT078H.grib2 2026-04-11 16:35 254K
20260411T12Z_MSC_GDPS_RelativeHumidity_IsbL-0020_LatLon0.15_PT078H.grib2 2026-04-11 16:35 381K
20260411T12Z_MSC_GDPS_RelativeHumidity_IsbL-0030_LatLon0.15_PT078H.grib2 2026-04-11 16:35 523K
20260411T12Z_MSC_GDPS_RelativeHumidity_IsbL-0050_LatLon0.15_PT078H.grib2 2026-04-11 16:35 322K
20260411T12Z_MSC_GDPS_RelativeHumidity_IsbL-0100_LatLon0.15_PT078H.grib2 2026-04-11 16:35 494K
20260411T12Z_MSC_GDPS_RelativeHumidity_IsbL-0150_LatLon0.15_PT078H.grib2 2026-04-11 16:35 649K
20260411T12Z_MSC_GDPS_RelativeHumidity_IsbL-0175_LatLon0.15_PT078H.grib2 2026-04-11 16:35 766K
20260411T12Z_MSC_GDPS_RelativeHumidity_IsbL-0200_LatLon0.15_PT078H.grib2 2026-04-11 16:35 682K
20260411T12Z_MSC_GDPS_RelativeHumidity_IsbL-0225_LatLon0.15_PT078H.grib2 2026-04-11 16:35 776K
20260411T12Z_MSC_GDPS_RelativeHumidity_IsbL-0250_LatLon0.15_PT078H.grib2 2026-04-11 16:35 858K
20260411T12Z_MSC_GDPS_RelativeHumidity_IsbL-0275_LatLon0.15_PT078H.grib2 2026-04-11 16:35 883K
20260411T12Z_MSC_GDPS_RelativeHumidity_IsbL-0300_LatLon0.15_PT078H.grib2 2026-04-11 16:35 929K
20260411T12Z_MSC_GDPS_RelativeHumidity_IsbL-0350_LatLon0.15_PT078H.grib2 2026-04-11 16:35 957K
20260411T12Z_MSC_GDPS_RelativeHumidity_IsbL-0400_LatLon0.15_PT078H.grib2 2026-04-11 16:35 1.0M
20260411T12Z_MSC_GDPS_RelativeHumidity_IsbL-0450_LatLon0.15_PT078H.grib2 2026-04-11 16:35 1.0M
20260411T12Z_MSC_GDPS_RelativeHumidity_IsbL-0500_LatLon0.15_PT078H.grib2 2026-04-11 16:35 1.0M
20260411T12Z_MSC_GDPS_RelativeHumidity_IsbL-0550_LatLon0.15_PT078H.grib2 2026-04-11 16:35 1.0M
20260411T12Z_MSC_GDPS_RelativeHumidity_IsbL-0600_LatLon0.15_PT078H.grib2 2026-04-11 16:35 1.1M
20260411T12Z_MSC_GDPS_RelativeHumidity_IsbL-0650_LatLon0.15_PT078H.grib2 2026-04-11 16:35 1.1M
20260411T12Z_MSC_GDPS_RelativeHumidity_IsbL-0700_LatLon0.15_PT078H.grib2 2026-04-11 16:35 1.1M
20260411T12Z_MSC_GDPS_RelativeHumidity_IsbL-0750_LatLon0.15_PT078H.grib2 2026-04-11 16:35 1.2M
20260411T12Z_MSC_GDPS_RelativeHumidity_IsbL-0800_LatLon0.15_PT078H.grib2 2026-04-11 16:35 1.2M
20260411T12Z_MSC_GDPS_RelativeHumidity_IsbL-0850_LatLon0.15_PT078H.grib2 2026-04-11 16:35 1.3M
20260411T12Z_MSC_GDPS_RelativeHumidity_IsbL-0875_LatLon0.15_PT078H.grib2 2026-04-11 16:35 1.3M
20260411T12Z_MSC_GDPS_RelativeHumidity_IsbL-0900_LatLon0.15_PT078H.grib2 2026-04-11 16:35 1.2M
20260411T12Z_MSC_GDPS_RelativeHumidity_IsbL-0925_LatLon0.15_PT078H.grib2 2026-04-11 16:35 1.2M
20260411T12Z_MSC_GDPS_RelativeHumidity_IsbL-0950_LatLon0.15_PT078H.grib2 2026-04-11 16:35 1.2M
20260411T12Z_MSC_GDPS_RelativeHumidity_IsbL-0970_LatLon0.15_PT078H.grib2 2026-04-11 16:35 1.2M
20260411T12Z_MSC_GDPS_RelativeHumidity_IsbL-0985_LatLon0.15_PT078H.grib2 2026-04-11 16:35 1.2M
20260411T12Z_MSC_GDPS_RelativeHumidity_IsbL-1000_LatLon0.15_PT078H.grib2 2026-04-11 16:35 1.1M
20260411T12Z_MSC_GDPS_RelativeHumidity_IsbL-1015_LatLon0.15_PT078H.grib2 2026-04-11 16:35 1.1M
20260411T12Z_MSC_GDPS_RelativeVorticity_IsbL-0200_LatLon0.15_PT078H.grib2 2026-04-11 16:35 1.5M
20260411T12Z_MSC_GDPS_RelativeVorticity_IsbL-0250_LatLon0.15_PT078H.grib2 2026-04-11 16:35 1.3M
20260411T12Z_MSC_GDPS_RelativeVorticity_IsbL-0500_LatLon0.15_PT078H.grib2 2026-04-11 16:35 1.5M
20260411T12Z_MSC_GDPS_RelativeVorticity_IsbL-0700_LatLon0.15_PT078H.grib2 2026-04-11 16:35 1.3M
20260411T12Z_MSC_GDPS_RelativeVorticity_IsbL-0850_LatLon0.15_PT078H.grib2 2026-04-11 16:35 1.6M
20260411T12Z_MSC_GDPS_Runoff-Accum_Sfc_LatLon0.15_PT078H.grib2 2026-04-11 16:35 127K
20260411T12Z_MSC_GDPS_SensibleHeatNetFlux_Sfc_LatLon0.15_PT078H.grib2 2026-04-11 16:35 459K
20260411T12Z_MSC_GDPS_ShowalterIndex_IsbL-0500_LatLon0.15_PT078H.grib2 2026-04-11 16:35 6.2M
20260411T12Z_MSC_GDPS_Snow-Accum12h_Sfc_LatLon0.15_PT078H.grib2 2026-04-11 16:35 1.5M
20260411T12Z_MSC_GDPS_Snow-Accum1h_Sfc_LatLon0.15_PT078H.grib2 2026-04-11 16:35 1.2M
20260411T12Z_MSC_GDPS_Snow-Accum24h_Sfc_LatLon0.15_PT078H.grib2 2026-04-11 16:35 1.6M
20260411T12Z_MSC_GDPS_Snow-Accum3h_Sfc_LatLon0.15_PT078H.grib2 2026-04-11 16:35 1.1M
20260411T12Z_MSC_GDPS_Snow-Accum6h_Sfc_LatLon0.15_PT078H.grib2 2026-04-11 16:35 1.4M
20260411T12Z_MSC_GDPS_Snow-Accum_Sfc_LatLon0.15_PT078H.grib2 2026-04-11 16:35 1.8M
20260411T12Z_MSC_GDPS_SnowDensity_Sfc_LatLon0.15_PT078H.grib2 2026-04-11 16:35 270K
20260411T12Z_MSC_GDPS_SnowDepth_Sfc_LatLon0.15_PT078H.grib2 2026-04-11 16:35 1.8M
20260411T12Z_MSC_GDPS_SoilTemp_DBS-0to10cm_LatLon0.15_PT078H.grib2 2026-04-11 16:35 508K
20260411T12Z_MSC_GDPS_SoilTemp_Sfc_LatLon0.15_PT078H.grib2 2026-04-11 16:35 581K
20260411T12Z_MSC_GDPS_SoilVolumetricIceContent_Sfc_LatLon0.15_PT078H.grib2 2026-04-11 16:35 226K
20260411T12Z_MSC_GDPS_SoilVolumetricWaterContent_DBS-0to10cm_LatLon0.15_PT078H.grib2 2026-04-11 16:35 551K
20260411T12Z_MSC_GDPS_SoilVolumetricWaterContent_DBS-0to1cm_LatLon0.15_PT078H.grib2 2026-04-11 16:35 650K
20260411T12Z_MSC_GDPS_SpecificHumidity_AGL-120m_LatLon0.15_PT078H.grib2 2026-04-11 16:35 1.1M
20260411T12Z_MSC_GDPS_SpecificHumidity_AGL-2m_LatLon0.15_PT078H.grib2 2026-04-11 16:35 1.2M
20260411T12Z_MSC_GDPS_SpecificHumidity_AGL-40m_LatLon0.15_PT078H.grib2 2026-04-11 16:35 1.1M
20260411T12Z_MSC_GDPS_SpecificHumidity_AGL-80m_LatLon0.15_PT078H.grib2 2026-04-11 16:35 1.1M
20260411T12Z_MSC_GDPS_SpecificHumidity_IsbL-0001_LatLon0.15_PT078H.grib2 2026-04-11 16:35 1.2M
20260411T12Z_MSC_GDPS_SpecificHumidity_IsbL-0005_LatLon0.15_PT078H.grib2 2026-04-11 16:35 1.1M
20260411T12Z_MSC_GDPS_SpecificHumidity_IsbL-0010_LatLon0.15_PT078H.grib2 2026-04-11 16:35 1.3M
20260411T12Z_MSC_GDPS_SpecificHumidity_IsbL-0020_LatLon0.15_PT078H.grib2 2026-04-11 16:35 1.3M
20260411T12Z_MSC_GDPS_SpecificHumidity_IsbL-0030_LatLon0.15_PT078H.grib2 2026-04-11 16:35 1.3M
20260411T12Z_MSC_GDPS_SpecificHumidity_IsbL-0050_LatLon0.15_PT078H.grib2 2026-04-11 16:35 1.3M
20260411T12Z_MSC_GDPS_SpecificHumidity_IsbL-0100_LatLon0.15_PT078H.grib2 2026-04-11 16:35 1.3M
20260411T12Z_MSC_GDPS_SpecificHumidity_IsbL-0150_LatLon0.15_PT078H.grib2 2026-04-11 16:35 1.3M
20260411T12Z_MSC_GDPS_SpecificHumidity_IsbL-0175_LatLon0.15_PT078H.grib2 2026-04-11 16:35 1.0M
20260411T12Z_MSC_GDPS_SpecificHumidity_IsbL-0200_LatLon0.15_PT078H.grib2 2026-04-11 16:35 1.0M
20260411T12Z_MSC_GDPS_SpecificHumidity_IsbL-0225_LatLon0.15_PT078H.grib2 2026-04-11 16:35 1.2M
20260411T12Z_MSC_GDPS_SpecificHumidity_IsbL-0250_LatLon0.15_PT078H.grib2 2026-04-11 16:35 1.2M
20260411T12Z_MSC_GDPS_SpecificHumidity_IsbL-0275_LatLon0.15_PT078H.grib2 2026-04-11 16:35 1.1M
20260411T12Z_MSC_GDPS_SpecificHumidity_IsbL-0300_LatLon0.15_PT078H.grib2 2026-04-11 16:35 1.2M
20260411T12Z_MSC_GDPS_SpecificHumidity_IsbL-0350_LatLon0.15_PT078H.grib2 2026-04-11 16:35 1.2M
20260411T12Z_MSC_GDPS_SpecificHumidity_IsbL-0400_LatLon0.15_PT078H.grib2 2026-04-11 16:35 1.4M
20260411T12Z_MSC_GDPS_SpecificHumidity_IsbL-0450_LatLon0.15_PT078H.grib2 2026-04-11 16:35 1.3M
20260411T12Z_MSC_GDPS_SpecificHumidity_IsbL-0500_LatLon0.15_PT078H.grib2 2026-04-11 16:35 1.5M
20260411T12Z_MSC_GDPS_SpecificHumidity_IsbL-0550_LatLon0.15_PT078H.grib2 2026-04-11 16:35 1.3M
20260411T12Z_MSC_GDPS_SpecificHumidity_IsbL-0600_LatLon0.15_PT078H.grib2 2026-04-11 16:35 1.4M
20260411T12Z_MSC_GDPS_SpecificHumidity_IsbL-0650_LatLon0.15_PT078H.grib2 2026-04-11 16:35 1.5M
20260411T12Z_MSC_GDPS_SpecificHumidity_IsbL-0700_LatLon0.15_PT078H.grib2 2026-04-11 16:35 1.6M
20260411T12Z_MSC_GDPS_SpecificHumidity_IsbL-0750_LatLon0.15_PT078H.grib2 2026-04-11 16:35 1.7M
20260411T12Z_MSC_GDPS_SpecificHumidity_IsbL-0800_LatLon0.15_PT078H.grib2 2026-04-11 16:35 1.8M
20260411T12Z_MSC_GDPS_SpecificHumidity_IsbL-0850_LatLon0.15_PT078H.grib2 2026-04-11 16:35 1.9M
20260411T12Z_MSC_GDPS_SpecificHumidity_IsbL-0875_LatLon0.15_PT078H.grib2 2026-04-11 16:35 1.9M
20260411T12Z_MSC_GDPS_SpecificHumidity_IsbL-0900_LatLon0.15_PT078H.grib2 2026-04-11 16:35 1.9M
20260411T12Z_MSC_GDPS_SpecificHumidity_IsbL-0925_LatLon0.15_PT078H.grib2 2026-04-11 16:35 1.6M
20260411T12Z_MSC_GDPS_SpecificHumidity_IsbL-0950_LatLon0.15_PT078H.grib2 2026-04-11 16:35 1.5M
20260411T12Z_MSC_GDPS_SpecificHumidity_IsbL-0970_LatLon0.15_PT078H.grib2 2026-04-11 16:35 1.5M
20260411T12Z_MSC_GDPS_SpecificHumidity_IsbL-0985_LatLon0.15_PT078H.grib2 2026-04-11 16:35 1.5M
20260411T12Z_MSC_GDPS_SpecificHumidity_IsbL-1000_LatLon0.15_PT078H.grib2 2026-04-11 16:35 1.5M
20260411T12Z_MSC_GDPS_SpecificHumidity_IsbL-1015_LatLon0.15_PT078H.grib2 2026-04-11 16:35 1.4M
20260411T12Z_MSC_GDPS_SpecificHumidity_Sfc_LatLon0.15_PT078H.grib2 2026-04-11 16:35 657K
20260411T12Z_MSC_GDPS_Thickness_IsbL-0850to0700_LatLon0.15_PT078H.grib2 2026-04-11 16:35 468K
20260411T12Z_MSC_GDPS_Thickness_IsbL-1000to0500_LatLon0.15_PT078H.grib2 2026-04-11 16:35 370K
20260411T12Z_MSC_GDPS_Thickness_IsbL-1000to0850_LatLon0.15_PT078H.grib2 2026-04-11 16:35 490K
20260411T12Z_MSC_GDPS_TotalCloudCover_Sfc_LatLon0.15_PT078H.grib2 2026-04-11 16:35 822K
20260411T12Z_MSC_GDPS_TotalTotalsIndex_Sfc_LatLon0.15_PT078H.grib2 2026-04-11 16:35 6.2M
20260411T12Z_MSC_GDPS_UVIndex-ClearSky-Max24h_Sfc_LatLon0.15_PT078H.grib2 2026-04-11 17:06 2.3M
20260411T12Z_MSC_GDPS_UVIndex-ClearSky_Sfc_LatLon0.15_PT078H.grib2 2026-04-11 17:06 1.0M
20260411T12Z_MSC_GDPS_UVIndex-Max24h_Sfc_LatLon0.15_PT078H.grib2 2026-04-11 17:06 3.2M
20260411T12Z_MSC_GDPS_UVIndex_Sfc_LatLon0.15_PT078H.grib2 2026-04-11 17:06 1.5M
20260411T12Z_MSC_GDPS_UpwardLongwaveRadiationFlux_NTAtm_LatLon0.15_PT078H.grib2 2026-04-11 16:35 1.1M
20260411T12Z_MSC_GDPS_VerticalVelocity_IsbL-0200_LatLon0.15_PT078H.grib2 2026-04-11 16:35 926K
20260411T12Z_MSC_GDPS_VerticalVelocity_IsbL-0250_LatLon0.15_PT078H.grib2 2026-04-11 16:35 1.1M
20260411T12Z_MSC_GDPS_VerticalVelocity_IsbL-0500_LatLon0.15_PT078H.grib2 2026-04-11 16:35 1.0M
20260411T12Z_MSC_GDPS_VerticalVelocity_IsbL-0600_LatLon0.15_PT078H.grib2 2026-04-11 16:35 1.1M
20260411T12Z_MSC_GDPS_VerticalVelocity_IsbL-0700_LatLon0.15_PT078H.grib2 2026-04-11 16:35 1.1M
20260411T12Z_MSC_GDPS_VerticalVelocity_IsbL-0850_LatLon0.15_PT078H.grib2 2026-04-11 16:35 1.6M
20260411T12Z_MSC_GDPS_WindChill_Sfc_LatLon0.15_PT078H.grib2 2026-04-11 16:35 5.4M
20260411T12Z_MSC_GDPS_WindDir_AGL-10m_LatLon0.15_PT078H.grib2 2026-04-11 16:35 1.3M
20260411T12Z_MSC_GDPS_WindDir_AGL-120m_LatLon0.15_PT078H.grib2 2026-04-11 16:35 1.4M
20260411T12Z_MSC_GDPS_WindDir_AGL-40m_LatLon0.15_PT078H.grib2 2026-04-11 16:35 1.4M
20260411T12Z_MSC_GDPS_WindDir_AGL-80m_LatLon0.15_PT078H.grib2 2026-04-11 16:35 1.4M
20260411T12Z_MSC_GDPS_WindDir_IsbL-0001_LatLon0.15_PT078H.grib2 2026-04-11 16:35 637K
20260411T12Z_MSC_GDPS_WindDir_IsbL-0005_LatLon0.15_PT078H.grib2 2026-04-11 16:35 780K
20260411T12Z_MSC_GDPS_WindDir_IsbL-0010_LatLon0.15_PT078H.grib2 2026-04-11 16:35 846K
20260411T12Z_MSC_GDPS_WindDir_IsbL-0020_LatLon0.15_PT078H.grib2 2026-04-11 16:35 914K
20260411T12Z_MSC_GDPS_WindDir_IsbL-0030_LatLon0.15_PT078H.grib2 2026-04-11 16:35 886K
20260411T12Z_MSC_GDPS_WindDir_IsbL-0050_LatLon0.15_PT078H.grib2 2026-04-11 16:35 949K
20260411T12Z_MSC_GDPS_WindDir_IsbL-0100_LatLon0.15_PT078H.grib2 2026-04-11 16:35 1.0M
20260411T12Z_MSC_GDPS_WindDir_IsbL-0150_LatLon0.15_PT078H.grib2 2026-04-11 16:35 1.0M
20260411T12Z_MSC_GDPS_WindDir_IsbL-0175_LatLon0.15_PT078H.grib2 2026-04-11 16:35 1.0M
20260411T12Z_MSC_GDPS_WindDir_IsbL-0200_LatLon0.15_PT078H.grib2 2026-04-11 16:35 1.1M
20260411T12Z_MSC_GDPS_WindDir_IsbL-0225_LatLon0.15_PT078H.grib2 2026-04-11 16:35 1.1M
20260411T12Z_MSC_GDPS_WindDir_IsbL-0250_LatLon0.15_PT078H.grib2 2026-04-11 16:35 1.1M
20260411T12Z_MSC_GDPS_WindDir_IsbL-0275_LatLon0.15_PT078H.grib2 2026-04-11 16:35 1.2M
20260411T12Z_MSC_GDPS_WindDir_IsbL-0300_LatLon0.15_PT078H.grib2 2026-04-11 16:35 1.2M
20260411T12Z_MSC_GDPS_WindDir_IsbL-0350_LatLon0.15_PT078H.grib2 2026-04-11 16:35 1.2M
20260411T12Z_MSC_GDPS_WindDir_IsbL-0400_LatLon0.15_PT078H.grib2 2026-04-11 16:35 1.3M
20260411T12Z_MSC_GDPS_WindDir_IsbL-0450_LatLon0.15_PT078H.grib2 2026-04-11 16:35 1.3M
20260411T12Z_MSC_GDPS_WindDir_IsbL-0500_LatLon0.15_PT078H.grib2 2026-04-11 16:35 1.3M
20260411T12Z_MSC_GDPS_WindDir_IsbL-0550_LatLon0.15_PT078H.grib2 2026-04-11 16:35 1.4M
20260411T12Z_MSC_GDPS_WindDir_IsbL-0600_LatLon0.15_PT078H.grib2 2026-04-11 16:35 1.5M
20260411T12Z_MSC_GDPS_WindDir_IsbL-0650_LatLon0.15_PT078H.grib2 2026-04-11 16:35 1.5M
20260411T12Z_MSC_GDPS_WindDir_IsbL-0700_LatLon0.15_PT078H.grib2 2026-04-11 16:35 1.6M
20260411T12Z_MSC_GDPS_WindDir_IsbL-0750_LatLon0.15_PT078H.grib2 2026-04-11 16:35 1.7M
20260411T12Z_MSC_GDPS_WindDir_IsbL-0800_LatLon0.15_PT078H.grib2 2026-04-11 16:35 1.8M
20260411T12Z_MSC_GDPS_WindDir_IsbL-0850_LatLon0.15_PT078H.grib2 2026-04-11 16:35 1.9M
20260411T12Z_MSC_GDPS_WindDir_IsbL-0875_LatLon0.15_PT078H.grib2 2026-04-11 16:35 2.0M
20260411T12Z_MSC_GDPS_WindDir_IsbL-0900_LatLon0.15_PT078H.grib2 2026-04-11 16:35 2.0M
20260411T12Z_MSC_GDPS_WindDir_IsbL-0925_LatLon0.15_PT078H.grib2 2026-04-11 16:35 2.0M
20260411T12Z_MSC_GDPS_WindDir_IsbL-0950_LatLon0.15_PT078H.grib2 2026-04-11 16:35 2.0M
20260411T12Z_MSC_GDPS_WindDir_IsbL-0970_LatLon0.15_PT078H.grib2 2026-04-11 16:35 2.0M
20260411T12Z_MSC_GDPS_WindDir_IsbL-0985_LatLon0.15_PT078H.grib2 2026-04-11 16:35 2.0M
20260411T12Z_MSC_GDPS_WindDir_IsbL-1000_LatLon0.15_PT078H.grib2 2026-04-11 16:35 2.1M
20260411T12Z_MSC_GDPS_WindDir_IsbL-1015_LatLon0.15_PT078H.grib2 2026-04-11 16:35 2.1M
20260411T12Z_MSC_GDPS_WindGust-Max_AGL-10m_LatLon0.15_PT078H.grib2 2026-04-11 16:35 2.3M
20260411T12Z_MSC_GDPS_WindGust-Min_AGL-10m_LatLon0.15_PT078H.grib2 2026-04-11 16:35 2.2M
20260411T12Z_MSC_GDPS_WindGust_AGL-10m_LatLon0.15_PT078H.grib2 2026-04-11 16:35 2.2M
20260411T12Z_MSC_GDPS_WindSpeed_AGL-10m_LatLon0.15_PT078H.grib2 2026-04-11 16:35 1.1M
20260411T12Z_MSC_GDPS_WindSpeed_AGL-120m_LatLon0.15_PT078H.grib2 2026-04-11 16:35 1.3M
20260411T12Z_MSC_GDPS_WindSpeed_AGL-40m_LatLon0.15_PT078H.grib2 2026-04-11 16:35 1.2M
20260411T12Z_MSC_GDPS_WindSpeed_AGL-80m_LatLon0.15_PT078H.grib2 2026-04-11 16:35 1.3M
20260411T12Z_MSC_GDPS_WindSpeed_IsbL-0001_LatLon0.15_PT078H.grib2 2026-04-11 16:35 632K
20260411T12Z_MSC_GDPS_WindSpeed_IsbL-0005_LatLon0.15_PT078H.grib2 2026-04-11 16:35 684K
20260411T12Z_MSC_GDPS_WindSpeed_IsbL-0010_LatLon0.15_PT078H.grib2 2026-04-11 16:35 622K
20260411T12Z_MSC_GDPS_WindSpeed_IsbL-0020_LatLon0.15_PT078H.grib2 2026-04-11 16:35 670K
20260411T12Z_MSC_GDPS_WindSpeed_IsbL-0030_LatLon0.15_PT078H.grib2 2026-04-11 16:35 854K
20260411T12Z_MSC_GDPS_WindSpeed_IsbL-0050_LatLon0.15_PT078H.grib2 2026-04-11 16:35 1.0M
20260411T12Z_MSC_GDPS_WindSpeed_IsbL-0100_LatLon0.15_PT078H.grib2 2026-04-11 16:35 1.1M
20260411T12Z_MSC_GDPS_WindSpeed_IsbL-0150_LatLon0.15_PT078H.grib2 2026-04-11 16:35 937K
20260411T12Z_MSC_GDPS_WindSpeed_IsbL-0175_LatLon0.15_PT078H.grib2 2026-04-11 16:35 1.0M
20260411T12Z_MSC_GDPS_WindSpeed_IsbL-0200_LatLon0.15_PT078H.grib2 2026-04-11 16:35 1.1M
20260411T12Z_MSC_GDPS_WindSpeed_IsbL-0225_LatLon0.15_PT078H.grib2 2026-04-11 16:35 1.1M
20260411T12Z_MSC_GDPS_WindSpeed_IsbL-0250_LatLon0.15_PT078H.grib2 2026-04-11 16:35 1.1M
20260411T12Z_MSC_GDPS_WindSpeed_IsbL-0275_LatLon0.15_PT078H.grib2 2026-04-11 16:35 1.1M
20260411T12Z_MSC_GDPS_WindSpeed_IsbL-0300_LatLon0.15_PT078H.grib2 2026-04-11 16:35 1.1M
20260411T12Z_MSC_GDPS_WindSpeed_IsbL-0350_LatLon0.15_PT078H.grib2 2026-04-11 16:35 1.1M
20260411T12Z_MSC_GDPS_WindSpeed_IsbL-0400_LatLon0.15_PT078H.grib2 2026-04-11 16:35 1.1M
20260411T12Z_MSC_GDPS_WindSpeed_IsbL-0450_LatLon0.15_PT078H.grib2 2026-04-11 16:35 1.1M
20260411T12Z_MSC_GDPS_WindSpeed_IsbL-0500_LatLon0.15_PT078H.grib2 2026-04-11 16:35 1.1M
20260411T12Z_MSC_GDPS_WindSpeed_IsbL-0550_LatLon0.15_PT078H.grib2 2026-04-11 16:35 1.1M
20260411T12Z_MSC_GDPS_WindSpeed_IsbL-0600_LatLon0.15_PT078H.grib2 2026-04-11 16:35 1.1M
20260411T12Z_MSC_GDPS_WindSpeed_IsbL-0650_LatLon0.15_PT078H.grib2 2026-04-11 16:35 1.4M
20260411T12Z_MSC_GDPS_WindSpeed_IsbL-0700_LatLon0.15_PT078H.grib2 2026-04-11 16:35 1.5M
20260411T12Z_MSC_GDPS_WindSpeed_IsbL-0750_LatLon0.15_PT078H.grib2 2026-04-11 16:35 1.6M
20260411T12Z_MSC_GDPS_WindSpeed_IsbL-0800_LatLon0.15_PT078H.grib2 2026-04-11 16:35 1.6M
20260411T12Z_MSC_GDPS_WindSpeed_IsbL-0850_LatLon0.15_PT078H.grib2 2026-04-11 16:35 1.9M
20260411T12Z_MSC_GDPS_WindSpeed_IsbL-0875_LatLon0.15_PT078H.grib2 2026-04-11 16:35 1.9M
20260411T12Z_MSC_GDPS_WindSpeed_IsbL-0900_LatLon0.15_PT078H.grib2 2026-04-11 16:35 1.9M
20260411T12Z_MSC_GDPS_WindSpeed_IsbL-0925_LatLon0.15_PT078H.grib2 2026-04-11 16:35 1.9M
20260411T12Z_MSC_GDPS_WindSpeed_IsbL-0950_LatLon0.15_PT078H.grib2 2026-04-11 16:35 1.9M
20260411T12Z_MSC_GDPS_WindSpeed_IsbL-0970_LatLon0.15_PT078H.grib2 2026-04-11 16:35 1.9M
20260411T12Z_MSC_GDPS_WindSpeed_IsbL-0985_LatLon0.15_PT078H.grib2 2026-04-11 16:35 1.9M
20260411T12Z_MSC_GDPS_WindSpeed_IsbL-1000_LatLon0.15_PT078H.grib2 2026-04-11 16:35 1.9M
20260411T12Z_MSC_GDPS_WindSpeed_IsbL-1015_LatLon0.15_PT078H.grib2 2026-04-11 16:35 1.8M
20260411T12Z_MSC_GDPS_WindU_AGL-10m_LatLon0.15_PT078H.grib2 2026-04-11 16:35 1.3M
20260411T12Z_MSC_GDPS_WindU_AGL-120m_LatLon0.15_PT078H.grib2 2026-04-11 16:35 1.0M
20260411T12Z_MSC_GDPS_WindU_AGL-40m_LatLon0.15_PT078H.grib2 2026-04-11 16:35 1.0M
20260411T12Z_MSC_GDPS_WindU_AGL-80m_LatLon0.15_PT078H.grib2 2026-04-11 16:35 1.0M
20260411T12Z_MSC_GDPS_WindU_IsbL-0001_LatLon0.15_PT078H.grib2 2026-04-11 16:35 635K
20260411T12Z_MSC_GDPS_WindU_IsbL-0005_LatLon0.15_PT078H.grib2 2026-04-11 16:35 682K
20260411T12Z_MSC_GDPS_WindU_IsbL-0010_LatLon0.15_PT078H.grib2 2026-04-11 16:35 696K
20260411T12Z_MSC_GDPS_WindU_IsbL-0020_LatLon0.15_PT078H.grib2 2026-04-11 16:35 735K
20260411T12Z_MSC_GDPS_WindU_IsbL-0030_LatLon0.15_PT078H.grib2 2026-04-11 16:35 735K
20260411T12Z_MSC_GDPS_WindU_IsbL-0050_LatLon0.15_PT078H.grib2 2026-04-11 16:35 704K
20260411T12Z_MSC_GDPS_WindU_IsbL-0100_LatLon0.15_PT078H.grib2 2026-04-11 16:35 929K
20260411T12Z_MSC_GDPS_WindU_IsbL-0150_LatLon0.15_PT078H.grib2 2026-04-11 16:35 1.0M
20260411T12Z_MSC_GDPS_WindU_IsbL-0175_LatLon0.15_PT078H.grib2 2026-04-11 16:35 1.0M
20260411T12Z_MSC_GDPS_WindU_IsbL-0200_LatLon0.15_PT078H.grib2 2026-04-11 16:35 1.0M
20260411T12Z_MSC_GDPS_WindU_IsbL-0225_LatLon0.15_PT078H.grib2 2026-04-11 16:35 854K
20260411T12Z_MSC_GDPS_WindU_IsbL-0250_LatLon0.15_PT078H.grib2 2026-04-11 16:35 856K
20260411T12Z_MSC_GDPS_WindU_IsbL-0275_LatLon0.15_PT078H.grib2 2026-04-11 16:35 882K
20260411T12Z_MSC_GDPS_WindU_IsbL-0300_LatLon0.15_PT078H.grib2 2026-04-11 16:35 872K
20260411T12Z_MSC_GDPS_WindU_IsbL-0350_LatLon0.15_PT078H.grib2 2026-04-11 16:35 886K
20260411T12Z_MSC_GDPS_WindU_IsbL-0400_LatLon0.15_PT078H.grib2 2026-04-11 16:35 889K
20260411T12Z_MSC_GDPS_WindU_IsbL-0450_LatLon0.15_PT078H.grib2 2026-04-11 16:35 892K
20260411T12Z_MSC_GDPS_WindU_IsbL-0500_LatLon0.15_PT078H.grib2 2026-04-11 16:35 1.1M
20260411T12Z_MSC_GDPS_WindU_IsbL-0550_LatLon0.15_PT078H.grib2 2026-04-11 16:35 1.1M
20260411T12Z_MSC_GDPS_WindU_IsbL-0600_LatLon0.15_PT078H.grib2 2026-04-11 16:35 1.1M
20260411T12Z_MSC_GDPS_WindU_IsbL-0650_LatLon0.15_PT078H.grib2 2026-04-11 16:35 1.2M
20260411T12Z_MSC_GDPS_WindU_IsbL-0700_LatLon0.15_PT078H.grib2 2026-04-11 16:35 1.2M
20260411T12Z_MSC_GDPS_WindU_IsbL-0750_LatLon0.15_PT078H.grib2 2026-04-11 16:35 1.3M
20260411T12Z_MSC_GDPS_WindU_IsbL-0800_LatLon0.15_PT078H.grib2 2026-04-11 16:35 1.3M
20260411T12Z_MSC_GDPS_WindU_IsbL-0850_LatLon0.15_PT078H.grib2 2026-04-11 16:35 1.4M
20260411T12Z_MSC_GDPS_WindU_IsbL-0875_LatLon0.15_PT078H.grib2 2026-04-11 16:35 1.5M
20260411T12Z_MSC_GDPS_WindU_IsbL-0900_LatLon0.15_PT078H.grib2 2026-04-11 16:35 1.5M
20260411T12Z_MSC_GDPS_WindU_IsbL-0925_LatLon0.15_PT078H.grib2 2026-04-11 16:35 1.5M
20260411T12Z_MSC_GDPS_WindU_IsbL-0950_LatLon0.15_PT078H.grib2 2026-04-11 16:35 1.4M
20260411T12Z_MSC_GDPS_WindU_IsbL-0970_LatLon0.15_PT078H.grib2 2026-04-11 16:35 1.4M
20260411T12Z_MSC_GDPS_WindU_IsbL-0985_LatLon0.15_PT078H.grib2 2026-04-11 16:35 1.4M
20260411T12Z_MSC_GDPS_WindU_IsbL-1000_LatLon0.15_PT078H.grib2 2026-04-11 16:35 1.4M
20260411T12Z_MSC_GDPS_WindU_IsbL-1015_LatLon0.15_PT078H.grib2 2026-04-11 16:35 1.4M
20260411T12Z_MSC_GDPS_WindV_AGL-10m_LatLon0.15_PT078H.grib2 2026-04-11 16:35 1.3M
20260411T12Z_MSC_GDPS_WindV_AGL-120m_LatLon0.15_PT078H.grib2 2026-04-11 16:35 1.0M
20260411T12Z_MSC_GDPS_WindV_AGL-40m_LatLon0.15_PT078H.grib2 2026-04-11 16:35 1.0M
20260411T12Z_MSC_GDPS_WindV_AGL-80m_LatLon0.15_PT078H.grib2 2026-04-11 16:35 1.0M
20260411T12Z_MSC_GDPS_WindV_IsbL-0001_LatLon0.15_PT078H.grib2 2026-04-11 16:35 541K
20260411T12Z_MSC_GDPS_WindV_IsbL-0005_LatLon0.15_PT078H.grib2 2026-04-11 16:35 601K
20260411T12Z_MSC_GDPS_WindV_IsbL-0010_LatLon0.15_PT078H.grib2 2026-04-11 16:35 624K
20260411T12Z_MSC_GDPS_WindV_IsbL-0020_LatLon0.15_PT078H.grib2 2026-04-11 16:35 855K
20260411T12Z_MSC_GDPS_WindV_IsbL-0030_LatLon0.15_PT078H.grib2 2026-04-11 16:35 853K
20260411T12Z_MSC_GDPS_WindV_IsbL-0050_LatLon0.15_PT078H.grib2 2026-04-11 16:35 910K
20260411T12Z_MSC_GDPS_WindV_IsbL-0100_LatLon0.15_PT078H.grib2 2026-04-11 16:35 1.1M
20260411T12Z_MSC_GDPS_WindV_IsbL-0150_LatLon0.15_PT078H.grib2 2026-04-11 16:35 1.0M
20260411T12Z_MSC_GDPS_WindV_IsbL-0175_LatLon0.15_PT078H.grib2 2026-04-11 16:35 1.0M
20260411T12Z_MSC_GDPS_WindV_IsbL-0200_LatLon0.15_PT078H.grib2 2026-04-11 16:35 1.0M
20260411T12Z_MSC_GDPS_WindV_IsbL-0225_LatLon0.15_PT078H.grib2 2026-04-11 16:35 850K
20260411T12Z_MSC_GDPS_WindV_IsbL-0250_LatLon0.15_PT078H.grib2 2026-04-11 16:35 848K
20260411T12Z_MSC_GDPS_WindV_IsbL-0275_LatLon0.15_PT078H.grib2 2026-04-11 16:35 873K
20260411T12Z_MSC_GDPS_WindV_IsbL-0300_LatLon0.15_PT078H.grib2 2026-04-11 16:35 863K
20260411T12Z_MSC_GDPS_WindV_IsbL-0350_LatLon0.15_PT078H.grib2 2026-04-11 16:35 877K
20260411T12Z_MSC_GDPS_WindV_IsbL-0400_LatLon0.15_PT078H.grib2 2026-04-11 16:35 879K
20260411T12Z_MSC_GDPS_WindV_IsbL-0450_LatLon0.15_PT078H.grib2 2026-04-11 16:35 879K
20260411T12Z_MSC_GDPS_WindV_IsbL-0500_LatLon0.15_PT078H.grib2 2026-04-11 16:35 1.1M
20260411T12Z_MSC_GDPS_WindV_IsbL-0550_LatLon0.15_PT078H.grib2 2026-04-11 16:35 1.1M
20260411T12Z_MSC_GDPS_WindV_IsbL-0600_LatLon0.15_PT078H.grib2 2026-04-11 16:35 1.1M
20260411T12Z_MSC_GDPS_WindV_IsbL-0650_LatLon0.15_PT078H.grib2 2026-04-11 16:35 1.2M
20260411T12Z_MSC_GDPS_WindV_IsbL-0700_LatLon0.15_PT078H.grib2 2026-04-11 16:35 1.2M
20260411T12Z_MSC_GDPS_WindV_IsbL-0750_LatLon0.15_PT078H.grib2 2026-04-11 16:35 1.3M
20260411T12Z_MSC_GDPS_WindV_IsbL-0800_LatLon0.15_PT078H.grib2 2026-04-11 16:35 1.3M
20260411T12Z_MSC_GDPS_WindV_IsbL-0850_LatLon0.15_PT078H.grib2 2026-04-11 16:35 1.4M
20260411T12Z_MSC_GDPS_WindV_IsbL-0875_LatLon0.15_PT078H.grib2 2026-04-11 16:35 1.4M
20260411T12Z_MSC_GDPS_WindV_IsbL-0900_LatLon0.15_PT078H.grib2 2026-04-11 16:35 1.5M
20260411T12Z_MSC_GDPS_WindV_IsbL-0925_LatLon0.15_PT078H.grib2 2026-04-11 16:35 1.5M
20260411T12Z_MSC_GDPS_WindV_IsbL-0950_LatLon0.15_PT078H.grib2 2026-04-11 16:35 1.4M
20260411T12Z_MSC_GDPS_WindV_IsbL-0970_LatLon0.15_PT078H.grib2 2026-04-11 16:35 1.4M
20260411T12Z_MSC_GDPS_WindV_IsbL-0985_LatLon0.15_PT078H.grib2 2026-04-11 16:35 1.4M
20260411T12Z_MSC_GDPS_WindV_IsbL-1000_LatLon0.15_PT078H.grib2 2026-04-11 16:35 1.4M
20260411T12Z_MSC_GDPS_WindV_IsbL-1015_LatLon0.15_PT078H.grib2 2026-04-11 16:35 1.4M